{"signature":{"source":"NASA/JPL Small-Body Database (SBDB) API","version":"1.3"},"orbit":{"rms":"0.58","n_dop_obs_used":null,"last_obs":"2026-09-03","producer":"Otto Matic","elements":[{"value":"0.207","name":"e","units":null,"label":"e","title":"eccentricity","sigma":"0.00052"},{"label":"a","title":"semi-major axis","sigma":"0.00025","value":"1.01","name":"a","units":"au"},{"sigma":"0.0004","title":"perihelion distance","label":"q","units":"au","name":"q","value":"0.8"},{"label":"i","title":"inclination; angle with respect to x-y ecliptic plane","sigma":"0.0096","name":"i","units":"deg","value":"2.71"},{"value":"157","name":"om","units":"deg","label":"node","sigma":"0.0034","title":"longitude of the ascending node"},{"value":"289","name":"w","units":"deg","label":"peri","sigma":"0.052","title":"argument of perihelion"},{"name":"ma","units":"deg","value":"194","label":"M","title":"mean anomaly","sigma":"0.13"},{"value":"2461370.893","name":"tp","units":"TDB","label":"tp","title":"time of perihelion passage","sigma":"0.074"},{"label":"period","sigma":"0.14","title":"sidereal orbital period","name":"per","units":"d","value":"370"},{"title":"mean motion","sigma":"0.00036","label":"n","value":"0.973","units":"deg/d","name":"n"},{"value":"1.22","name":"ad","units":"au","label":"Q","title":"aphelion distance","sigma":"0.0003"}],"equinox":"J2000","model_pars":[],"sb_used":"SB441-N16","pe_used":"DE441","comment":null,"not_valid_after":null,"t_jup":"6.019","n_obs_used":14,"source":"JPL","orbit_id":"1","not_valid_before":null,"epoch":"2461200.5","cov_epoch":"2461285.5","moid":"0.00538","two_body":null,"n_del_obs_used":null,"condition_code":"7","moid_jup":"3.94","data_arc":"1","first_obs":"2026-09-02","soln_date":"2026-09-02 22:42:02"},"object":{"neo":true,"des":"2026 RD","fullname":"(2026 RD)","prefix":null,"pha":false,"spkid":"54652275","orbit_class":{"code":"APO","name":"Apollo"},"kind":"au","orbit_id":"1"}}
